STARLINK-31409, 59299

Orbit data source: Space-Track

STARLINK-31409, 59299 is a payload satellite owned by SpaceX/Seattle (US) in LEO that was launched on Sun, 24 Mar 2024 UTC via an FALCON 9 launch vehicle from the Air Force Eastern Test Range (AFETR). Payload-class satellites include a variety of spacecraft equipped with specific instruments for various scientific and technological missions. These include communications satellites like Starlink; space stations such as the ISS; scientific satellites like the Hubble; Earth observation satellites from companies like Planet Labs, Umbra, and HawkEye 360; GPS; miniature CubeSats for education and research; and military/defense satellites.

Loading next visibility...
Identifier
59299, 2024-056D
Orbit
LEO
Country
Flag of USUS
Related business
Manufacturer
SpaceX/Seattle
Mission
Operational Commercial Communications
Bus & Motor
STARLINK V2M, Unknown motor
Mass
730 kg wet, ~700 kg dry
Launch date (UTC)
2024-03-24 (2 years ago)
Launch vehicle
FALCON 9
Launch site
Air Force Eastern Test Range (AFETR)
Object type
Payload
Rocket body
Debris
Shape & HBR
Box + 2 Pan, 17.7 m
Radar Cross Section
33.884 m², Large (>1 m²)

Expand to show TLE details & history
Last TLE update: 3 days ago

TLE from 3 days ago
0 STARLINK-31409
1 59299U 24056D   26170.62439872  .00002132  00000-0  86961-4 0  9990
2 59299  43.0027   8.1418 0001712 266.2496  93.8160 15.27589977126949
Epoch: 2026-06-19T14:59Z
TLE epoch observation values (Epoch: 2026-06-19T14:59:08.049Z)
Latitude
-0.00001°
Longitude
-124.49245°
Altitude
482.873 km
Speed
7.626 km/s
True Right ascension
00h 32m 34s
True Declination
0° 00' 00"
Sunlit
Object was in daylight at epoch
Visualization orbit readout
Latitude
Unknown
Longitude
Unknown
Altitude
Unknown
Speed
Unknown
Apparent Right ascension
Unknown
Apparent Declination
Unknown
Sunlit
N/A
Visualization observer readout
Local Sidereal Time
21:25:27
Azimuth
Unknown
Elevation
Unknown
Doppler factor
Unknown
Orbital elements
Apogee altitude
486.139 km
Perigee altitude
483.789 km
Semi-major axis
6,863.101 km
Eccentricity
0.00017
Inclination
43.0027°
RAAN
8.1418°
Arg. of periapsis
266.2496°
True anomaly
93.83557°
Mean anomaly
93.816°
Eccentric anomaly
93.82579°
Mean motion
3.81736 °/min
Orbital period
94.31 mins
BSTAR
0.000086961
Loading maneuver chart data...
Computing Atmospheric mass density...
Loading historical data...
Loading historical data...
Loading historical data...
Loading historical data...
Loading historical data...
Loading historical data...
Loading historical data...

Documentation

Showing up to 5 results
|